Regional Weather Roundup
Issued by NWS

Home | Current Version | Previous Version | Text Only | Print | Product List | Glossary Off
Versions: 1 2 3 4 5 6 7 8 9 10 11 12 13 14 15 16 17 18 19 20 21 22 23 24 25 26 27 28 29 30 31 32 33 34 35 36 37 38 39 40 41 42 43 44 45 46 47 48 49 50

000
ASUS45 KCYS 252310
RWRWY

WYOMING REGIONAL WEATHER ROUNDUP
NATIONAL WEATHER SERVICE CHEYENNE WY
500 PM MDT FRI JUL 25 2014

NOTE:  "FAIR" INDICATES FEW OR NO CLOUDS BELOW 12,000 FEET
WITH NO SIGNIFICANT WEATHER AND/OR OBSTRUCTIONS TO VISIBILITY.

WYZ001-260000-
YELLOWSTONE NATIONAL PARK

CITY           SKY/WX    TMP DP  RH WIND       PRES   REMARKS
LK YELLOWSTONE   N/A     69  12  11 W10G23    30.24S
W YELLOWSTONE  NOT AVBL

$$
WYZ002>013-054>058-071-098>099-260000-
NORTHERN WYOMING

CITY           SKY/WX    TMP DP  RH WIND       PRES   REMARKS
JACKSON        SUNNY     81  25  12 S17G25    30.14S
CODY           NOT AVBL
GREYBULL       SUNNY     92  24   8 VRB6      29.84F
WORLAND        SUNNY     91  36  14 NE9       29.85F
SHERIDAN       SUNNY     89  46  22 CALM      29.86F
BUFFALO        SUNNY     88  43  20 N12G21    29.93S
GILLETTE       SUNNY     93  38  14 VRB7      29.85F
HULETT         FAIR      82  50  32 MISG      29.90
NEWCASTLE      FAIR      88  37  16 MISG      29.90

$$
WYZ014>020-022>026-101>103-260000-
CENTRAL WYOMING

CITY           SKY/WX    TMP DP  RH WIND       PRES   REMARKS
BIG PINEY      SUNNY     84  27  12 W20G28    30.17S
PINEDALE       CLEAR     81  30  16 W21G29    30.17S
DUBOIS         FAIR      79  23  12 W23G35    30.14F
LANDER         MOSUNNY   93  20   7 W22G39    29.97R
RIVERTON       MOSUNNY   93  22   7 SW21G31   29.97F
CASPER         MOSUNNY   94  26   9 W25G37    29.93F
DOUGLAS        PTSUNNY   90  54  29 SE21      29.94F

$$
WYZ021-027>030-104>119-260000-
SOUTHERN WYOMING

CITY           SKY/WX    TMP DP  RH WIND       PRES   REMARKS
EVANSTON       SUNNY     86  31  13 SW24G38   30.19F
KEMMERER       CLEAR    N/A N/A N/A W32       30.20S
FORT BRIDGER   FAIR      90  28  10 W23G32    30.20S
ROCK SPRINGS   SUNNY     90  25   9 W26G43    30.11F
DIXON          FAIR      85  36  17 NW18G28   30.17S
RAWLINS        PTSUNNY   86  31  13 SW22      30.13S
SARATOGA       FAIR      77  46  33 NW9G17    30.20S
LARAMIE        PTSUNNY   79  41  25 NW10      30.18S
CHEYENNE       PTSUNNY   84  48  28 S22G32    30.07F
TORRINGTON     PTSUNNY   83  51  33 E14       29.89F
PINE BLUFFS    FAIR      72  61  68 E14       30.03F

$$



USA.gov is the U.S. government's official web portal to all federal, state and local government web resources and services.